Location: Newark
(42.7133°N, 87.7910°W)
Time: 18:46:41
(UTC+00:00)

A-11 Canister half - Pass Details

Date: 26 September 2019
Orbit: 1527 x 1682 km, 47.3° (Epoch: 22 October)

Event Time Altitude Azimuth Distance (km) Brightness Sun altitude
Exits shadow 06:16:30 13° 87° (E) 3,501 10.9 -47.8°
Drops below altitude 10° 06:17:35 10° 82° (E) 3,731 11.1 -47.7°
Sets 06:21:33 0° 68° (ENE) 4,739 11.9 -47.5°
